Location: Newark
(48.6461°N, 4.3644°W)
Time: 08:27:30
(UTC+00:00)

Altair - Pass Details

Date: 22 January 2021
Orbit: 1501 x 1682 km, 47.2° (Epoch: 24 February)

Event Time Altitude Azimuth Distance (km) Brightness Sun altitude
Exits shadow 05:48:45 - 222° (SW) 4,637 9.7 -21.2°
Reaches altitude 10° 05:51:13 10° 218° (SW) 3,898 9.3 -20.7°
Maximum altitude 06:00:44 50° 147° (SSE) 2,047 8.4 -19.2°
Drops below altitude 10° 06:10:22 10° 76° (ENE) 3,946 10.7 -17.6°
Sets 06:13:38 0° 71° (ENE) 4,928 11.2 -17.1°
